NOAA 16 DEB, 41233

Orbit data source: Space-Track

NOAA 16 DEB, 41233 is space debris in SSO originally from a launch on Thu, 21 Sep 2000 UTC launched from the Air Force Western Test Range (AFWTR). Debris objects in space refer to the collection of defunct objects orbiting the Earth. Examples of debris include non-operational satellites, rocket bodies, and fragments generated from explosions, collisions, or faulty payload assembly.

Loading next visibility...
Identifier
41233, 2000-055EN
Orbit
SSO
Country
Flag of USUS
Related business
Manufacturer
Unknown
Mission
Spacecraft
Bus & Motor
Unknown
Mass
Unknown
Launch date (UTC)
2000-09-21 (25 years ago)
Launch vehicle
Unknown
Launch site
Air Force Western Test Range (AFWTR)
Object type
Payload
Rocket body
Debris
Shape & HBR
Unknown shape, 0.1 m
Radar Cross Section
Small (<0.1 m²)

Expand to show TLE details & history
Last TLE update: 20 hours ago

TLE from 20 hours ago
0 NOAA 16 DEB
1 41233U 00055EN  25294.54674008  .00005000  00000-0  23686-2 0  9991
2 41233  98.7047 331.5237 0040860 109.8084 250.7504 14.19586484507276
Epoch: 2025-10-21T13:07Z
TLE epoch observation values (Epoch: 2025-10-21T13:07:18.342Z)
Latitude
-0.00008°
Longitude
104.46415°
Altitude
839.48 km
Speed
7.428 km/s
True Right ascension
22h 06m 05s
True Declination
0° 00' 00"
Sunlit
Object was in full shadow at epoch
Visualization orbit readout
Latitude
Unknown
Longitude
Unknown
Altitude
Unknown
Speed
Unknown
Apparent Right ascension
Unknown
Apparent Declination
Unknown
Sunlit
N/A
Visualization observer readout
Local Sidereal Time
03:55:05
Azimuth
Unknown
Elevation
Unknown
Doppler factor
Unknown
Orbital elements
Apogee altitude
853.338 km
Perigee altitude
794.483 km
Semi-major axis
7,202.047 km
Eccentricity
0.00409
Inclination
98.7047°
RAAN
331.5237°
Arg. of periapsis
109.8084°
True anomaly
250.3091°
Mean anomaly
250.7504°
Eccentric anomaly
250.52968°
Mean motion
3.55107 °/min
Orbital period
101.38 mins
BSTAR
0.0023686
Loading maneuver chart data...
Computing Atmospheric mass density...
Loading historical data...
Loading historical data...
Loading historical data...
Loading historical data...
Loading historical data...
Loading historical data...
Loading historical data...

Documentation

Showing up to 5 results
|